Date,Time,Wetness (Wet Dry or Ice),Wind Speed (m/s),Temperature (C),Humidity (%),Pressure (mb),Radiation (W/m^2)
2019-01-07,04:35:00,DRY,3.85,3.60,11.0,776.00,1.0
2019-01-07,04:40:00,DRY,3.43,3.63,11.0,776.00,1.0
2019-01-07,04:45:00,DRY,4.85,3.50,11.0,776.00,1.1
2019-01-07,04:50:00,DRY,2.60,3.50,11.0,776.00,1.3
2019-01-07,04:55:00,DRY,3.45,3.60,10.0,776.00,1.1
2019-01-07,05:00:00,DRY,4.50,3.60,10.0,776.00,1.1
2019-01-07,05:05:00,DRY,5.20,3.60,10.0,776.00,1.0
2019-01-07,05:10:00,DRY,3.60,3.73,10.0,776.00,1.5
2019-01-07,05:15:00,DRY,4.60,3.75,10.0,776.00,1.3
2019-01-07,05:20:00,DRY,3.07,3.67,10.0,776.00,0.9
2019-01-07,05:25:00,DRY,5.95,3.55,10.0,776.00,1.3
2019-01-07,05:30:00,DRY,5.57,3.43,10.0,775.33,1.3
2019-01-07,05:35:00,DRY,4.45,3.40,10.0,775.50,1.0
2019-01-07,05:40:00,DRY,5.03,3.30,10.0,775.67,1.0
2019-01-07,05:45:00,DRY,4.10,3.30,10.0,775.00,0.5
2019-01-07,05:50:00,DRY,4.00,3.23,10.0,776.00,1.1
2019-01-07,05:55:00,DRY,3.60,3.35,10.0,775.50,0.9
2019-01-07,06:00:00,DRY,6.30,3.23,10.0,775.33,1.3
2019-01-07,06:05:00,DRY,4.25,3.20,10.0,775.00,1.1
2019-01-07,06:10:00,DRY,5.87,3.47,10.0,776.00,1.2
2019-01-07,06:15:00,DRY,4.55,3.85,10.0,776.00,1.4
2019-01-07,06:20:00,DRY,5.17,3.63,10.0,776.00,0.7
2019-01-07,06:25:00,DRY,3.65,3.70,10.0,776.00,1.1
2019-01-07,06:30:00,DRY,3.87,3.77,10.0,776.00,0.8
2019-01-07,06:35:00,DRY,5.55,3.65,10.0,776.00,2.2
2019-01-07,06:40:00,DRY,4.73,3.73,10.0,776.00,1.1
2019-01-07,06:45:00,DRY,4.80,3.70,10.0,776.00,1.0
2019-01-07,06:50:00,DRY,4.20,3.87,10.0,776.00,0.9
2019-01-07,06:55:00,DRY,5.30,3.95,10.0,776.00,0.3
2019-01-07,07:00:00,DRY,4.47,3.90,10.0,776.00,1.0
2019-01-07,07:05:00,DRY,3.60,4.00,10.0,776.00,1.1
2019-01-07,07:10:00,DRY,4.40,3.90,10.0,776.00,1.3
2019-01-07,07:15:00,DRY,4.50,3.85,10.0,776.00,0.9
2019-01-07,07:20:00,DRY,4.07,3.87,10.0,776.00,1.7
2019-01-07,07:25:00,DRY,4.05,3.95,10.0,776.00,1.1
2019-01-07,07:30:00,DRY,5.07,3.90,10.0,776.00,1.0
2019-01-07,07:35:00,DRY,2.95,3.90,10.0,776.00,1.1
2019-01-07,07:40:00,DRY,3.57,3.83,10.0,776.00,1.3
2019-01-07,07:45:00,DRY,4.35,3.85,10.0,776.00,1.2
2019-01-07,07:50:00,DRY,5.23,3.67,10.0,776.00,1.5
2019-01-07,07:55:00,DRY,3.55,3.70,10.0,776.00,2.4
2019-01-07,08:00:00,DRY,3.60,3.87,9.3,776.00,2.6
2019-01-07,08:05:00,DRY,3.20,3.85,9.0,776.00,5.4
2019-01-07,08:10:00,DRY,3.50,3.93,9.0,776.00,11.1
2019-01-07,08:15:00,DRY,3.75,3.95,10.0,776.00,16.6
2019-01-07,08:20:00,DRY,4.47,3.93,9.7,776.00,22.6
2019-01-07,08:25:00,DRY,2.85,4.00,9.0,776.00,30.2
2019-01-07,08:30:00,DRY,3.17,3.97,9.0,776.00,38.8
2019-01-07,08:35:00,DRY,4.25,3.90,9.0,776.00,39.1
2019-01-07,08:40:00,DRY,4.37,3.97,9.0,776.00,38.7
2019-01-07,08:45:00,DRY,3.50,3.85,9.0,776.00,43.5
2019-01-07,08:50:00,DRY,5.57,3.97,8.7,776.00,51.3
2019-01-07,08:55:00,DRY,3.45,4.05,9.0,776.00,77.6
2019-01-07,09:00:00,DRY,3.80,4.17,9.0,776.00,71.5
2019-01-07,09:05:00,DRY,4.05,4.20,9.0,776.50,79.6
2019-01-07,09:10:00,DRY,3.20,4.27,8.7,777.00,95.0
2019-01-07,09:15:00,DRY,2.45,4.65,9.0,776.00,108.3
2019-01-07,09:20:00,DRY,3.00,4.53,9.0,777.00,114.4
2019-01-07,09:25:00,DRY,1.10,4.70,8.5,777.00,134.0
2019-01-07,09:30:00,DRY,2.13,4.67,9.0,777.00,114.9
2019-01-07,09:35:00,DRY,3.60,4.75,9.0,777.00,116.1
2019-01-07,09:40:00,DRY,2.93,4.43,9.0,777.00,120.7
2019-01-07,09:45:00,DRY,3.10,4.40,9.0,777.00,122.3
2019-01-07,09:50:00,DRY,4.17,4.53,9.0,777.00,128.8
2019-01-07,09:55:00,DRY,4.80,4.75,9.0,777.00,137.2
2019-01-07,10:00:00,DRY,4.33,4.80,9.0,777.00,157.7
2019-01-07,10:05:00,DRY,4.60,5.00,10.0,777.00,196.0
2019-01-07,10:10:00,DRY,2.93,5.17,9.0,777.00,276.9
2019-01-07,10:15:00,DRY,2.35,5.30,9.5,777.00,316.2
2019-01-07,10:20:00,DRY,3.73,5.23,9.3,777.00,291.9
2019-01-07,10:25:00,DRY,3.10,5.30,9.5,777.00,407.3
2019-01-07,10:30:00,DRY,4.70,5.40,9.3,777.00,341.4
2019-01-07,10:35:00,DRY,3.00,5.40,9.5,777.00,513.1
2019-01-07,10:40:00,DRY,2.33,5.73,9.0,777.00,532.4
2019-01-07,10:45:00,DRY,3.20,5.70,9.0,777.00,456.8
2019-01-07,10:50:00,DRY,2.63,5.73,9.0,777.00,551.6
2019-01-07,10:55:00,DRY,3.10,5.95,9.0,777.00,465.1
2019-01-07,11:00:00,DRY,2.47,5.90,9.0,777.00,403.6
2019-01-07,11:05:00,DRY,2.40,5.70,10.0,777.00,341.3
2019-01-07,11:10:00,DRY,3.07,5.60,9.0,777.00,457.0
2019-01-07,11:15:00,DRY,2.05,5.80,9.0,777.00,481.9
2019-01-07,11:20:00,DRY,2.20,5.77,9.0,777.00,520.2
2019-01-07,11:25:00,DRY,3.10,5.85,9.5,777.00,586.6
2019-01-07,11:30:00,DRY,1.70,6.10,10.3,777.00,627.7
2019-01-07,11:35:00,DRY,2.35,6.05,10.5,777.00,625.7
2019-01-07,11:40:00,DRY,2.20,6.47,11.0,777.00,677.8
2019-01-07,11:45:00,DRY,3.15,6.25,12.0,776.50,714.0
2019-01-07,11:50:00,DRY,2.30,6.33,11.3,777.00,704.3
2019-01-07,11:55:00,DRY,0.80,6.70,12.0,776.50,709.2
2019-01-07,12:00:00,DRY,0.67,6.60,11.7,776.00,716.0
2019-01-07,12:05:00,DRY,1.90,6.35,11.0,776.00,724.1
2019-01-07,12:10:00,DRY,1.50,6.60,12.0,776.00,721.0
2019-01-07,12:15:00,DRY,2.65,6.35,13.5,776.00,749.5
2019-01-07,12:20:00,DRY,1.37,6.47,14.0,776.00,563.1
2019-01-07,12:25:00,DRY,2.00,6.30,15.5,776.00,689.9
2019-01-07,12:30:00,DRY,1.53,6.23,17.3,776.00,745.6
2019-01-07,12:35:00,DRY,3.45,6.20,19.5,776.00,673.6
2019-01-07,12:40:00,DRY,2.50,6.10,19.3,776.00,786.6
2019-01-07,12:45:00,DRY,3.30,6.05,19.0,776.00,685.0
2019-01-07,12:50:00,DRY,1.33,6.43,18.7,776.00,712.1
2019-01-07,12:55:00,DRY,1.95,6.45,18.5,776.00,444.0
2019-01-07,13:00:00,DRY,1.77,6.00,20.0,776.00,506.7
2019-01-07,13:05:00,DRY,1.45,6.35,19.0,775.50,673.0
2019-01-07,13:10:00,DRY,2.57,6.57,19.7,775.00,699.6
2019-01-07,13:15:00,DRY,3.90,6.20,22.5,775.00,590.0
2019-01-07,13:20:00,DRY,1.53,5.70,27.0,775.00,330.2
2019-01-07,13:25:00,DRY,1.20,6.00,24.0,775.00,832.0
2019-01-07,13:30:00,DRY,2.00,6.60,23.0,775.00,928.8
2019-01-07,13:35:00,DRY,1.00,6.40,27.0,775.00,599.3
2019-01-07,13:40:00,DRY,1.27,6.63,26.7,775.00,566.1
2019-01-07,13:45:00,DRY,1.90,6.40,23.5,775.00,483.9
2019-01-07,13:50:00,DRY,0.97,6.53,24.7,775.00,549.1
2019-01-07,13:55:00,DRY,0.95,6.60,27.0,775.00,535.0
2019-01-07,14:00:00,DRY,1.40,6.77,26.0,775.00,733.2
2019-01-07,14:05:00,DRY,1.70,6.70,25.5,775.00,599.6
2019-01-07,14:10:00,DRY,1.90,6.63,28.3,775.00,324.3
2019-01-07,14:15:00,DRY,2.15,6.20,28.0,775.00,286.1
2019-01-07,14:20:00,DRY,1.80,6.07,30.0,775.00,394.8
2019-01-07,14:25:00,DRY,2.65,6.60,20.0,775.00,518.0
2019-01-07,14:30:00,DRY,1.93,7.07,17.7,775.00,864.7
2019-01-07,14:35:00,DRY,1.30,6.95,21.5,775.00,642.3
2019-01-07,14:40:00,DRY,1.37,7.33,28.0,775.00,723.5
2019-01-07,14:45:00,DRY,0.75,7.15,30.5,775.00,602.9
2019-01-07,14:50:00,DRY,2.07,6.83,29.3,775.00,594.8
2019-01-07,14:55:00,DRY,1.90,6.65,31.5,775.00,535.4
2019-01-07,15:00:00,DRY,1.40,6.37,32.7,775.00,376.0
2019-01-07,15:05:00,DRY,1.20,6.15,38.5,775.00,561.2
2019-01-07,15:10:00,DRY,2.07,6.43,30.3,775.00,726.1
2019-01-07,15:15:00,DRY,1.55,6.70,30.0,775.00,637.5
2019-01-07,15:20:00,DRY,1.63,6.47,31.0,775.00,478.7
2019-01-07,15:25:00,DRY,1.85,6.25,32.0,775.00,389.4
2019-01-07,15:30:00,DRY,3.13,6.27,33.3,775.00,338.4
2019-01-07,15:35:00,DRY,2.80,6.10,28.0,775.00,242.6
2019-01-07,15:40:00,DRY,1.30,6.03,26.7,775.00,276.5
2019-01-07,15:45:00,DRY,3.50,5.70,28.5,775.00,360.8
2019-01-07,15:50:00,DRY,2.27,6.07,25.3,775.00,403.0
2019-01-07,15:55:00,DRY,2.10,6.10,24.0,775.00,293.5
2019-01-07,16:00:00,DRY,2.03,5.80,25.7,775.00,225.7
2019-01-07,16:05:00,DRY,1.55,5.80,27.0,775.00,208.1
2019-01-07,16:10:00,DRY,1.70,5.77,28.7,775.00,194.3
2019-01-07,16:15:00,DRY,2.00,5.70,27.0,775.00,223.3
2019-01-07,16:20:00,DRY,1.60,5.53,28.3,775.00,391.3
2019-01-07,16:25:00,DRY,2.10,5.80,24.0,775.00,264.5
2019-01-07,16:30:00,DRY,2.30,6.10,15.3,775.00,265.3
2019-01-07,16:35:00,DRY,3.20,6.05,15.0,775.00,261.4
2019-01-07,16:40:00,DRY,2.03,6.00,20.0,775.00,238.1
2019-01-07,16:45:00,DRY,2.10,5.95,19.5,775.00,207.8
2019-01-07,16:50:00,DRY,1.77,5.87,14.7,775.00,183.8
2019-01-07,16:55:00,DRY,1.35,5.85,16.0,775.00,217.8
2019-01-07,17:00:00,DRY,1.70,5.70,13.3,775.00,203.6
2019-01-07,17:05:00,DRY,1.30,5.80,14.0,775.00,167.7
2019-01-07,17:10:00,DRY,1.70,6.00,12.3,775.00,151.0
2019-01-07,17:15:00,DRY,1.65,5.95,10.0,775.00,136.9
2019-01-07,17:20:00,DRY,2.67,6.00,9.7,775.00,148.7
2019-01-07,17:25:00,DRY,2.40,6.35,6.5,775.00,199.3
2019-01-07,17:30:00,DRY,1.13,6.43,9.3,775.00,164.8
2019-01-07,17:35:00,DRY,1.65,6.20,12.0,775.00,146.7
2019-01-07,17:40:00,DRY,1.80,6.27,10.3,775.00,150.1
2019-01-07,17:45:00,DRY,2.80,6.25,10.0,775.00,109.2
2019-01-07,17:50:00,DRY,3.00,6.07,9.3,775.00,87.4
2019-01-07,17:55:00,DRY,3.90,6.00,9.0,775.00,69.3
2019-01-07,18:00:00,DRY,2.57,5.87,10.0,775.00,54.9
2019-01-07,18:05:00,DRY,3.20,5.85,10.5,775.00,44.5
2019-01-07,18:10:00,DRY,3.87,5.77,10.7,775.00,34.5
2019-01-07,18:15:00,DRY,2.80,5.85,9.5,775.00,23.5
2019-01-07,18:20:00,DRY,3.63,5.90,9.0,775.00,15.5
2019-01-07,18:25:00,DRY,3.00,5.95,9.0,775.00,10.1
2019-01-07,18:30:00,DRY,2.70,6.00,8.0,775.00,6.7
2019-01-07,18:35:00,DRY,4.60,6.10,7.5,775.00,2.9
2019-01-07,18:40:00,DRY,3.80,6.03,8.0,775.00,1.9
2019-01-07,18:45:00,DRY,3.90,6.05,7.5,775.00,1.5
2019-01-07,18:50:00,DRY,3.90,6.10,7.7,775.00,1.6
2019-01-07,18:55:00,DRY,3.65,6.10,8.0,775.00,1.4
2019-01-07,19:00:00,DRY,4.00,6.20,7.0,775.00,1.2
2019-01-07,19:05:00,DRY,3.20,6.15,8.0,775.00,1.8
2019-01-07,19:10:00,DRY,2.67,6.13,8.0,775.00,1.8
2019-01-07,19:15:00,DRY,3.40,6.20,8.0,775.00,1.4
2019-01-07,19:20:00,DRY,2.77,6.27,8.0,775.00,0.7
2019-01-07,19:25:00,DRY,2.70,6.55,7.0,775.00,1.2
2019-01-07,19:30:00,DRY,3.90,6.60,7.0,775.00,1.2
2019-01-07,19:35:00,DRY,2.55,6.65,6.0,775.00,1.8
2019-01-07,19:40:00,DRY,3.03,6.53,7.0,775.00,1.4
2019-01-07,19:45:00,DRY,2.95,6.45,8.0,775.00,1.6
2019-01-07,19:50:00,DRY,2.97,6.20,9.0,775.00,1.6
2019-01-07,19:55:00,DRY,1.90,6.05,10.0,775.00,2.0
2019-01-07,20:00:00,DRY,1.50,5.93,9.0,775.00,0.8
2019-01-07,20:05:00,DRY,1.80,5.90,9.0,775.00,1.4
2019-01-07,20:10:00,DRY,2.40,6.07,8.3,775.00,1.2
2019-01-07,20:15:00,DRY,1.40,6.00,8.0,775.00,0.9
2019-01-07,20:20:00,DRY,1.87,5.97,8.3,775.00,1.3
2019-01-07,20:25:00,DRY,3.15,5.90,8.0,775.00,1.6
2019-01-07,20:30:00,DRY,2.80,5.97,7.7,775.00,1.1
2019-01-07,20:35:00,DRY,2.30,6.00,7.5,775.00,0.6
2019-01-07,20:40:00,DRY,3.47,6.03,7.7,775.00,1.5
2019-01-07,20:45:00,DRY,2.75,5.95,8.5,775.00,2.5
2019-01-07,20:50:00,DRY,3.40,5.47,10.7,775.00,0.8
2019-01-07,20:55:00,DRY,4.40,5.40,9.5,775.00,1.1
2019-01-07,21:00:00,DRY,3.03,5.77,8.3,775.00,1.4
2019-01-07,21:05:00,DRY,2.50,6.10,7.0,775.00,1.3
2019-01-07,21:10:00,DRY,2.83,5.80,8.0,775.00,1.7
2019-01-07,21:15:00,DRY,3.95,5.75,8.0,775.00,1.1
2019-01-07,21:20:00,DRY,2.23,5.73,7.7,775.00,1.0
2019-01-07,21:25:00,DRY,1.65,5.70,8.0,775.00,1.4
2019-01-07,21:30:00,DRY,3.33,5.60,8.3,775.00,1.3
2019-01-07,21:35:00,DRY,3.00,5.30,9.5,775.00,1.4
2019-01-07,21:40:00,DRY,4.07,5.43,8.7,775.00,1.6
2019-01-07,21:45:00,DRY,3.25,5.60,8.5,775.50,2.2
2019-01-07,21:50:00,DRY,3.60,5.63,8.0,775.00,1.1
2019-01-07,21:55:00,DRY,3.40,5.55,8.5,775.50,1.6
2019-01-07,22:00:00,DRY,3.53,5.27,9.3,775.33,1.1
2019-01-07,22:05:00,DRY,5.00,5.15,10.0,775.00,1.4
2019-01-07,22:10:00,DRY,4.03,5.27,9.3,775.33,2.0
2019-01-07,22:15:00,DRY,3.70,5.45,8.0,775.00,1.2
2019-01-07,22:20:00,DRY,4.27,5.43,8.3,775.33,1.2
2019-01-07,22:25:00,DRY,3.50,5.35,8.5,775.00,1.0
2019-01-07,22:30:00,DRY,3.80,5.17,8.7,775.00,0.9
2019-01-07,22:35:00,DRY,3.45,5.15,9.0,775.50,1.2
2019-01-07,22:40:00,DRY,3.27,5.47,8.0,775.33,1.4
2019-01-07,22:45:00,DRY,3.90,5.70,7.0,775.00,1.9
2019-01-07,22:50:00,DRY,3.43,5.77,7.7,775.33,2.3
2019-01-07,22:55:00,DRY,3.40,5.80,8.0,775.00,1.4
2019-01-07,23:00:00,DRY,3.07,5.43,8.0,775.33,1.4
2019-01-07,23:05:00,DRY,2.55,5.55,7.5,775.00,1.3
2019-01-07,23:10:00,DRY,3.10,5.77,7.0,775.33,1.9
2019-01-07,23:15:00,DRY,2.95,5.55,7.0,775.00,1.2
2019-01-07,23:20:00,DRY,1.90,5.67,7.0,775.33,1.6
2019-01-07,23:25:00,DRY,2.55,5.65,7.0,775.00,0.6
2019-01-07,23:30:00,DRY,2.20,5.63,7.0,775.00,0.8
2019-01-07,23:35:00,DRY,1.60,5.50,7.0,775.00,1.8
2019-01-07,23:40:00,DRY,1.97,5.40,7.0,775.00,0.7
2019-01-07,23:45:00,DRY,2.25,5.25,7.0,775.00,1.4
2019-01-07,23:50:00,DRY,2.03,5.40,6.7,775.00,0.9
2019-01-07,23:55:00,DRY,1.65,5.15,7.0,775.00,1.2
2019-01-08,00:00:00,DRY,1.93,5.17,7.0,775.00,0.7
2019-01-08,00:05:00,DRY,1.40,5.15,6.0,775.00,1.5
2019-01-08,00:10:00,DRY,1.47,5.47,6.0,775.00,0.7
2019-01-08,00:15:00,DRY,2.05,5.40,6.0,775.00,1.5
2019-01-08,00:20:00,DRY,1.80,5.73,5.7,775.00,1.1
2019-01-08,00:25:00,DRY,1.60,5.95,6.0,775.00,1.2
2019-01-08,00:30:00,DRY,2.10,6.07,5.0,775.00,2.0
2019-01-08,00:35:00,DRY,1.25,5.85,5.0,775.00,2.0
2019-01-08,00:40:00,DRY,1.23,5.83,5.3,775.00,2.4
2019-01-08,00:45:00,DRY,1.25,5.85,5.0,775.00,0.8
2019-01-08,00:50:00,DRY,1.53,5.80,5.7,775.00,1.6
2019-01-08,00:55:00,DRY,2.20,5.70,5.5,775.00,0.8
2019-01-08,01:00:00,DRY,3.10,5.45,6.0,775.00,0.9
2019-01-08,01:05:00,DRY,2.60,5.65,6.0,775.00,1.6
2019-01-08,01:10:00,DRY,1.80,5.67,5.7,775.00,1.1
2019-01-08,01:15:00,DRY,1.50,5.75,5.5,775.00,1.0
2019-01-08,01:20:00,DRY,1.33,5.40,6.0,775.00,1.6
2019-01-08,01:25:00,DRY,1.80,5.40,6.0,775.00,1.6
2019-01-08,01:30:00,DRY,1.60,5.57,6.3,775.00,0.7
2019-01-08,01:35:00,DRY,1.50,5.70,6.5,775.00,3.2
2019-01-08,01:40:00,DRY,1.73,5.43,6.0,775.00,1.4
2019-01-08,01:45:00,DRY,1.55,5.30,6.5,775.00,0.5
2019-01-08,01:50:00,DRY,2.47,5.40,7.7,775.00,1.4
2019-01-08,01:55:00,DRY,2.25,5.65,8.0,775.00,0.8
2019-01-08,02:00:00,DRY,2.17,5.57,7.3,775.00,0.4
2019-01-08,02:05:00,DRY,1.55,5.40,7.0,775.00,1.1
2019-01-08,02:10:00,DRY,2.13,5.37,6.3,775.00,1.7
2019-01-08,02:15:00,DRY,2.65,5.25,6.0,775.00,1.4
2019-01-08,02:20:00,DRY,3.13,5.20,6.0,775.00,1.1
2019-01-08,02:25:00,DRY,2.90,5.25,5.5,775.00,0.8
2019-01-08,02:30:00,DRY,3.90,5.30,5.0,775.00,2.0
2019-01-08,02:35:00,DRY,3.80,5.10,5.0,775.00,2.5
2019-01-08,02:40:00,DRY,3.37,5.00,5.0,775.00,0.9
2019-01-08,02:45:00,DRY,3.60,4.95,5.5,775.00,1.1
2019-01-08,02:50:00,DRY,3.70,4.83,6.0,775.00,0.9
2019-01-08,02:55:00,DRY,3.30,4.95,6.0,775.00,1.9
2019-01-08,03:00:00,DRY,4.87,4.73,6.0,775.00,1.2
2019-01-08,03:05:00,DRY,5.00,4.85,5.0,775.00,1.2
2019-01-08,03:10:00,DRY,4.40,4.83,5.0,775.00,1.2
2019-01-08,03:15:00,DRY,5.35,4.65,5.0,775.00,1.2
2019-01-08,03:20:00,DRY,4.07,4.63,5.0,775.00,0.8
2019-01-08,03:25:00,DRY,4.00,4.55,5.0,775.00,1.2
2019-01-08,03:30:00,DRY,3.43,4.37,5.7,775.00,1.0
2019-01-08,03:35:00,DRY,3.35,4.90,4.5,775.00,1.1
2019-01-08,03:40:00,DRY,2.37,5.17,4.0,775.00,0.5
2019-01-08,03:45:00,DRY,2.35,5.60,4.0,775.00,1.9
2019-01-08,03:50:00,DRY,2.77,5.80,4.3,775.00,1.6
2019-01-08,03:55:00,DRY,2.90,5.70,4.0,775.00,0.8
2019-01-08,04:00:00,DRY,2.20,5.73,4.7,775.00,1.0
2019-01-08,04:05:00,DRY,2.30,5.65,4.0,775.00,1.2
2019-01-08,04:10:00,DRY,2.97,5.40,4.0,775.00,1.3
2019-01-08,04:15:00,DRY,3.40,5.10,4.0,774.50,1.2
2019-01-08,04:20:00,DRY,3.10,4.97,4.3,774.67,1.2
2019-01-08,04:25:00,DRY,3.05,5.10,4.0,774.00,1.0
2019-01-08,04:30:00,DRY,2.30,5.30,4.0,774.33,0.5
2019-01-08,04:35:00,DRY,2.80,5.55,4.5,774.50,1.6
2019-01-08,04:40:00,DRY,2.43,5.57,4.3,774.00,1.3
2019-01-08,04:45:00,DRY,3.55,5.15,4.0,774.00,1.3
2019-01-08,04:50:00,DRY,2.73,5.10,5.0,774.00,1.0
2019-01-08,04:55:00,DRY,3.70,5.45,5.0,774.00,1.0
2019-01-08,05:00:00,DRY,1.67,5.43,5.0,774.00,1.1
2019-01-08,05:05:00,DRY,4.00,5.40,5.0,774.00,0.8
2019-01-08,05:10:00,DRY,2.60,5.30,5.0,774.00,0.9
2019-01-08,05:15:00,DRY,3.45,5.20,5.0,774.00,0.7
2019-01-08,05:20:00,DRY,3.40,4.77,5.0,774.00,1.4
2019-01-08,05:25:00,DRY,4.20,4.85,6.0,774.00,1.1
2019-01-08,05:30:00,DRY,2.87,4.90,6.0,774.00,1.9
2019-01-08,05:35:00,DRY,3.10,4.90,6.0,774.00,1.4
2019-01-08,05:40:00,DRY,3.33,4.90,6.0,774.00,1.2
2019-01-08,05:45:00,DRY,3.05,4.95,6.0,774.00,1.5
2019-01-08,05:50:00,DRY,3.33,5.03,6.0,774.00,1.1
2019-01-08,05:55:00,DRY,5.15,5.25,6.0,774.00,0.5
2019-01-08,06:00:00,DRY,3.00,5.13,6.7,774.00,1.1
2019-01-08,06:05:00,DRY,3.70,5.00,7.0,774.00,1.6
2019-01-08,06:10:00,DRY,5.10,5.13,6.7,774.00,1.2
2019-01-08,06:15:00,DRY,4.20,5.00,7.0,774.00,0.9
2019-01-08,06:20:00,DRY,2.97,4.87,7.0,774.00,1.2
2019-01-08,06:25:00,DRY,3.50,4.75,7.0,774.00,1.2
2019-01-08,06:30:00,DRY,4.37,4.60,7.0,774.00,1.0
2019-01-08,06:35:00,DRY,4.75,4.50,7.0,774.00,0.8
2019-01-08,06:40:00,DRY,4.90,4.43,7.0,774.00,1.1
2019-01-08,06:45:00,DRY,4.75,4.45,7.0,774.00,0.9
2019-01-08,06:50:00,DRY,4.83,4.43,7.0,774.00,1.3
2019-01-08,06:55:00,DRY,5.50,4.40,7.0,774.00,1.1
2019-01-08,07:00:00,DRY,5.43,4.47,7.0,774.00,1.1
2019-01-08,07:05:00,DRY,4.35,4.50,7.0,774.00,1.1
2019-01-08,07:10:00,DRY,4.40,4.50,7.0,774.33,1.2
2019-01-08,07:15:00,DRY,3.90,4.65,7.0,774.50,1.4
2019-01-08,07:20:00,DRY,3.57,4.57,7.0,774.67,1.2
2019-01-08,07:25:00,DRY,2.95,4.45,7.0,774.50,1.4
2019-01-08,07:30:00,DRY,3.73,4.47,7.0,775.00,1.1
2019-01-08,07:35:00,DRY,2.25,4.45,6.0,775.00,1.5
2019-01-08,07:40:00,DRY,3.23,4.50,6.7,775.00,1.4
2019-01-08,07:45:00,DRY,2.95,4.55,6.5,775.00,1.4
2019-01-08,07:50:00,DRY,3.10,4.50,7.0,775.00,1.8
2019-01-08,07:55:00,DRY,2.95,4.50,6.5,775.00,2.5
2019-01-08,08:00:00,DRY,2.93,4.33,6.3,775.00,3.0
2019-01-08,08:05:00,DRY,2.80,4.40,6.5,775.00,5.2
2019-01-08,08:10:00,DRY,2.13,4.40,6.3,775.00,7.6
2019-01-08,08:15:00,DRY,3.40,4.55,6.0,775.00,12.1
2019-01-08,08:20:00,DRY,3.00,4.50,6.0,775.00,16.7
2019-01-08,08:25:00,DRY,1.30,4.30,6.0,775.00,23.4
2019-01-08,08:30:00,DRY,2.67,4.53,6.3,775.00,31.8
2019-01-08,08:35:00,DRY,1.75,4.70,7.0,775.00,38.9
2019-01-08,08:40:00,DRY,2.20,4.83,6.0,775.00,47.2
2019-01-08,08:45:00,DRY,2.75,4.80,5.5,775.00,56.1
2019-01-08,08:50:00,DRY,2.37,4.73,6.0,775.00,95.7
2019-01-08,08:55:00,DRY,2.90,4.90,6.0,775.00,166.6
2019-01-08,09:00:00,DRY,1.93,5.10,6.0,775.00,133.6
2019-01-08,09:05:00,DRY,1.75,5.15,6.0,775.00,217.3
2019-01-08,09:10:00,DRY,1.60,5.37,6.0,775.00,197.7
2019-01-08,09:15:00,DRY,1.70,5.45,6.0,775.00,232.1
2019-01-08,09:20:00,DRY,2.27,5.60,5.7,775.00,254.4
2019-01-08,09:25:00,DRY,1.35,5.70,5.0,775.00,273.3
2019-01-08,09:30:00,DRY,1.30,5.77,5.0,775.00,290.1
2019-01-08,09:35:00,DRY,2.05,5.75,6.0,775.00,289.4
2019-01-08,09:40:00,DRY,2.30,5.83,6.0,775.00,344.5
2019-01-08,09:45:00,DRY,1.30,5.95,6.0,775.00,331.6
2019-01-08,09:50:00,DRY,2.13,6.07,6.0,775.00,376.3
2019-01-08,09:55:00,DRY,1.20,5.70,6.5,775.00,389.9
2019-01-08,10:00:00,DRY,1.03,6.00,6.7,775.00,401.2
2019-01-08,10:05:00,DRY,2.25,5.65,7.0,775.00,413.4
2019-01-08,10:10:00,DRY,1.43,5.67,7.3,775.00,415.1
2019-01-08,10:15:00,DRY,2.00,5.65,7.5,775.00,480.0
2019-01-08,10:20:00,DRY,1.03,6.13,6.7,775.00,513.0
2019-01-08,10:25:00,DRY,1.45,6.10,7.5,775.00,425.3
2019-01-08,10:30:00,DRY,0.83,5.93,7.7,775.00,393.4
2019-01-08,10:35:00,DRY,1.75,6.00,7.5,775.50,448.0
2019-01-08,10:40:00,DRY,2.20,5.93,7.0,775.00,286.6
2019-01-08,10:45:00,DRY,3.85,5.75,7.5,775.00,237.8
2019-01-08,10:50:00,DRY,2.50,5.80,7.7,775.00,253.4
2019-01-08,10:55:00,DRY,1.55,5.70,7.5,775.00,285.5
2019-01-08,11:00:00,DRY,2.20,5.83,8.3,776.00,402.9
2019-01-08,11:05:00,DRY,2.70,5.90,7.5,775.50,458.0
2019-01-08,11:10:00,DRY,0.93,6.17,8.3,776.00,661.1
2019-01-08,11:15:00,DRY,3.05,6.70,8.5,776.00,717.9
2019-01-08,11:20:00,DRY,1.40,7.00,9.3,776.00,680.3
2019-01-08,11:25:00,DRY,1.45,6.85,9.0,775.50,653.8
2019-01-08,11:30:00,DRY,1.67,6.90,9.0,775.00,674.1
2019-01-08,11:35:00,DRY,1.75,7.40,10.0,775.00,789.3
2019-01-08,11:40:00,DRY,1.60,7.60,9.0,775.00,723.3
2019-01-08,11:45:00,DRY,1.75,7.35,9.5,775.00,530.8
2019-01-08,11:50:00,DRY,0.93,7.23,9.7,775.00,477.5
2019-01-08,11:55:00,DRY,0.90,7.55,8.5,775.00,604.4
2019-01-08,12:00:00,DRY,1.17,7.40,8.7,775.00,511.7
2019-01-08,12:05:00,DRY,1.00,7.30,8.5,775.00,444.5
2019-01-08,12:10:00,DRY,1.37,7.30,10.0,775.00,437.4
2019-01-08,12:15:00,DRY,0.95,7.05,9.0,775.00,412.6
2019-01-08,12:20:00,DRY,1.00,7.27,10.7,775.00,357.8
2019-01-08,12:25:00,DRY,1.85,7.20,11.0,775.00,318.0
2019-01-08,12:30:00,DRY,2.23,7.10,10.3,775.00,312.3
2019-01-08,12:35:00,DRY,1.30,7.00,11.5,775.00,324.9
2019-01-08,12:40:00,DRY,1.50,6.93,13.3,775.00,358.1
2019-01-08,12:45:00,DRY,2.20,7.10,12.5,775.00,434.2
2019-01-08,12:50:00,DRY,1.20,7.40,10.0,775.00,675.5
2019-01-08,12:55:00,DRY,2.35,7.65,12.0,775.00,778.9
2019-01-08,13:00:00,DRY,1.67,8.03,9.0,775.00,833.3
2019-01-08,13:05:00,DRY,1.80,7.95,10.5,775.00,593.2
2019-01-08,13:10:00,DRY,1.33,8.13,12.7,775.00,537.6
2019-01-08,13:15:00,DRY,1.50,8.00,13.5,774.00,439.4
2019-01-08,13:20:00,DRY,1.43,8.13,13.7,774.00,451.6
2019-01-08,13:25:00,DRY,1.50,7.85,18.5,774.00,442.0
2019-01-08,13:30:00,DRY,0.70,7.70,20.0,774.00,454.1
2019-01-08,13:35:00,DRY,2.00,7.60,22.0,774.00,585.5
2019-01-08,13:40:00,DRY,1.00,7.50,19.7,774.00,641.1
2019-01-08,13:45:00,DRY,1.50,7.80,15.0,774.00,586.9
2019-01-08,13:50:00,DRY,1.37,8.13,18.7,774.00,893.9
2019-01-08,13:55:00,DRY,1.05,8.80,16.5,774.00,878.6
2019-01-08,14:00:00,DRY,1.87,8.47,19.0,774.00,437.6
2019-01-08,14:05:00,DRY,0.80,8.25,17.5,774.00,636.8
2019-01-08,14:10:00,DRY,1.10,8.43,22.0,774.00,599.5
2019-01-08,14:15:00,DRY,0.95,8.60,17.0,774.00,416.9
2019-01-08,14:20:00,DRY,1.07,8.17,28.3,774.00,444.4
2019-01-08,14:25:00,DRY,1.25,8.30,32.0,774.00,533.5
2019-01-08,14:30:00,DRY,1.10,7.87,32.0,774.00,426.5
2019-01-08,14:35:00,DRY,1.15,7.25,40.0,774.00,230.8
2019-01-08,14:40:00,DRY,1.30,6.93,41.7,774.00,234.6
2019-01-08,14:45:00,DRY,0.95,7.00,43.0,774.00,229.2
2019-01-08,14:50:00,DRY,0.73,7.30,27.7,774.00,361.6
2019-01-08,14:55:00,DRY,1.45,7.10,45.0,774.00,488.6
2019-01-08,15:00:00,DRY,0.97,7.03,35.7,774.00,543.7
2019-01-08,15:05:00,DRY,1.85,7.25,38.5,774.00,571.0
2019-01-08,15:10:00,DRY,1.20,7.57,38.3,774.00,501.6
2019-01-08,15:15:00,DRY,0.90,7.75,28.0,774.00,412.8
2019-01-08,15:20:00,DRY,0.60,7.67,14.7,774.00,414.7
2019-01-08,15:25:00,DRY,1.50,7.95,17.0,774.00,330.3
2019-01-08,15:30:00,DRY,0.73,7.77,12.0,774.00,327.5
2019-01-08,15:35:00,DRY,0.55,7.70,22.5,774.00,327.0
2019-01-08,15:40:00,DRY,1.00,7.37,18.7,774.00,449.5
2019-01-08,15:45:00,DRY,2.10,7.00,14.5,774.00,423.4
2019-01-08,15:50:00,DRY,2.03,6.90,25.3,774.00,349.2
2019-01-08,15:55:00,DRY,1.10,6.75,19.5,774.00,459.8
2019-01-08,16:00:00,DRY,2.07,6.77,16.3,774.00,566.9
2019-01-08,16:05:00,DRY,2.10,7.15,21.0,774.00,593.2
2019-01-08,16:10:00,DRY,1.23,7.50,17.7,774.00,585.9
2019-01-08,16:15:00,DRY,2.10,7.55,15.0,774.00,544.1
2019-01-08,16:20:00,DRY,3.03,7.50,12.3,774.00,486.7
2019-01-08,16:25:00,DRY,2.10,7.10,12.5,774.00,405.7
2019-01-08,16:30:00,DRY,2.67,6.97,14.0,774.00,428.6
2019-01-08,16:35:00,DRY,1.20,7.10,13.5,774.00,400.8
2019-01-08,16:40:00,DRY,2.70,7.07,12.0,774.00,395.8
2019-01-08,16:45:00,DRY,2.45,7.00,11.0,774.00,325.6
2019-01-08,16:50:00,DRY,3.20,6.67,10.0,774.00,138.6
2019-01-08,16:55:00,DRY,3.50,6.40,10.0,774.00,131.7
2019-01-08,17:00:00,DRY,3.53,6.57,10.0,774.00,264.7
2019-01-08,17:05:00,DRY,3.60,6.95,10.0,774.00,259.5
2019-01-08,17:10:00,DRY,4.17,6.83,9.7,774.00,229.2
2019-01-08,17:15:00,DRY,2.60,6.75,10.0,774.00,134.6
2019-01-08,17:20:00,DRY,3.20,6.60,8.3,774.00,118.6
2019-01-08,17:25:00,DRY,2.90,6.60,10.0,774.00,133.6
2019-01-08,17:30:00,DRY,3.07,6.50,11.0,774.00,98.9
2019-01-08,17:35:00,DRY,2.45,6.40,10.5,774.00,73.4
2019-01-08,17:40:00,DRY,2.83,6.33,11.0,774.00,67.5
2019-01-08,17:45:00,DRY,3.30,6.20,10.5,774.00,65.8
2019-01-08,17:50:00,DRY,3.97,6.30,9.7,774.00,125.1
2019-01-08,17:55:00,DRY,4.55,6.45,9.0,774.00,119.8
2019-01-08,18:00:00,DRY,3.13,6.57,9.0,774.00,97.2
2019-01-08,18:05:00,DRY,4.05,6.50,7.5,774.00,71.8
2019-01-08,18:10:00,DRY,2.90,6.33,7.7,774.00,42.5
2019-01-08,18:15:00,DRY,1.90,6.30,7.5,774.00,29.5
2019-01-08,18:20:00,DRY,3.00,6.20,7.3,774.00,19.7
2019-01-08,18:25:00,DRY,2.30,6.10,9.0,774.00,10.8
2019-01-08,18:30:00,DRY,3.33,5.97,9.0,774.00,7.4
2019-01-08,18:35:00,DRY,2.75,5.90,8.5,774.00,4.9
2019-01-08,18:40:00,DRY,2.87,5.87,10.0,774.00,3.8
2019-01-08,18:45:00,DRY,1.70,5.80,9.5,774.00,2.0
2019-01-08,18:50:00,DRY,2.00,5.80,9.0,774.00,2.2
2019-01-08,18:55:00,DRY,2.50,5.75,9.5,774.00,1.8
2019-01-08,19:00:00,DRY,1.83,5.73,10.7,774.00,1.4
2019-01-08,19:05:00,DRY,1.85,5.60,10.0,774.00,1.4
2019-01-08,19:10:00,DRY,2.47,5.57,9.0,774.00,1.2
2019-01-08,19:15:00,DRY,2.05,5.40,8.5,774.00,0.8
2019-01-08,19:20:00,DRY,1.97,5.47,9.3,774.00,1.0
2019-01-08,19:25:00,DRY,2.30,5.40,10.0,774.00,1.1
2019-01-08,19:30:00,DRY,2.07,5.43,9.3,774.00,0.8
2019-01-08,19:35:00,DRY,2.00,5.35,9.0,774.00,1.6
2019-01-08,19:40:00,DRY,2.57,5.43,9.3,774.33,1.1
2019-01-08,19:45:00,DRY,3.15,5.35,9.0,774.00,1.4
2019-01-08,19:50:00,DRY,2.87,5.37,9.0,774.33,0.4
2019-01-08,19:55:00,DRY,3.10,5.35,9.0,775.00,1.1
2019-01-08,20:00:00,DRY,2.97,5.37,8.0,775.00,1.0